Theta_e
337 337 336 336 336 335 335 334 334 334 332 331 331 331 330 330 331 331 331 331 330 329 329 330 331 330 329 328 326 325 325 324 324 325 323 320 321 324 326 328 329 329 329 329 326 322 317 314 312 309 309 308 306 303 302 301 302 302 301 301 301 300 299
336 336 336 336 336 336 335 334 334 334 332 331 331 331 330 330 331 331 331 330 330 330 330 331 330 329 329 327 325 324 323 322 322 323 325 324 321 321 321 324 326 328 329 327 325 321 316 314 312 309 309 308 305 303 302 302 302 302 301 301 301 301 300
336 337 336 336 336 336 335 334 334 334 332 331 330 331 331 331 331 331 331 331 330 330 330 330 330 329 328 326 324 322 320 320 319 321 324 322 317 316 315 316 319 322 324 325 323 319 315 313 310 308 309 308 304 303 302 302 302 302 301 301 301 301 300
336 337 336 335 335 335 335 335 334 334 332 331 330 330 331 331 331 331 331 331 331 330 329 329 329 328 326 324 323 321 318 317 316 317 319 317 312 311 310 309 311 313 316 319 320 316 313 312 309 307 309 308 304 303 302 302 302 302 301 301 301 301 299
335 336 335 335 335 335 335 335 335 334 332 331 331 331 331 331 331 330 330 330 330 329 328 329 328 327 325 323 321 318 316 315 314 314 314 311 308 307 306 305 307 308 312 315 315 314 312 311 308 307 309 308 304 303 302 302 302 302 302 302 301 300 299
336 335 335 334 334 334 334 334 334 333 332 332 331 331 331 332 331 330 330 330 329 328 328 328 328 325 323 320 318 315 314 313 312 311 310 307 304 304 303 303 304 304 308 310 311 311 310 309 308 307 309 308 305 303 302 302 302 302 302 302 301 300 299
336 336 335 334 334 334 334 334 333 333 332 331 331 331 332 331 330 330 330 330 329 328 328 328 327 323 319 317 315 313 312 311 310 308 305 303 302 303 302 302 302 302 303 304 305 306 307 308 307 307 308 308 306 304 303 302 302 301 301 302 301 300 300
337 336 335 334 334 334 334 333 333 333 332 331 331 331 331 330 329 329 330 329 328 327 327 326 324 320 317 314 312 311 309 308 306 304 303 302 302 302 302 302 302 302 302 302 302 302 303 307 308 306 306 307 305 304 303 301 301 300 300 301 300 299 300
337 335 335 335 335 334 334 333 333 333 332 331 331 332 331 330 329 330 330 328 327 326 324 323 321 318 315 312 311 309 307 304 303 302 302 302 302 301 301 301 301 301 301 301 301 301 301 305 307 307 307 306 305 303 302 303 302 299 299 300 300 300 300
336 336 336 335 335 334 334 333 333 332 331 331 331 332 331 330 330 330 328 326 325 324 323 321 318 316 314 312 310 307 304 303 302 302 301 301 301 301 301 301 301 301 301 300 300 300 300 302 305 307 307 307 306 304 304 305 303 299 299 300 300 301 300
336 336 336 336 335 335 334 333 333 332 331 331 331 331 331 331 330 328 327 326 324 323 322 320 317 315 313 311 307 304 302 302 302 301 301 301 301 301 301 301 300 300 300 300 300 300 299 300 302 304 306 307 307 306 306 306 301 298 300 300 301 301 300
337 337 337 336 336 335 334 334 333 332 331 331 331 331 331 330 329 327 326 325 323 322 322 318 316 315 312 308 304 302 302 301 301 301 301 300 300 300 300 300 300 300 300 299 299 299 299 299 300 300 303 305 305 305 306 306 301 299 300 301 301 301 299
337 337 337 336 335 334 334 333 333 332 331 331 331 331 331 329 327 327 326 324 324 323 321 317 315 313 309 305 302 301 301 301 301 301 300 300 300 300 300 300 300 300 299 299 299 299 299 299 300 299 300 300 300 301 303 304 301 299 300 300 301 301 299
337 337 337 336 335 334 334 333 332 331 331 331 331 330 329 328 326 326 326 325 324 323 319 316 313 309 305 302 301 301 301 301 300 300 300 300 300 300 300 300 300 299 299 299 299 299 299 300 299 299 299 298 298 299 300 300 300 299 300 300 300 299 298
337 337 336 335 335 335 334 332 331 331 331 330 330 329 328 327 326 326 325 324 323 320 316 313 310 306 303 301 301 300 300 300 300 300 300 300 300 300 299 299 299 299 299 299 299 299 299 299 299 299 298 298 298 299 299 299 300 300 300 300 300 299 297
337 336 335 335 335 335 333 331 331 331 331 331 330 328 327 327 326 326 324 323 321 317 313 310 307 304 302 301 300 300 300 300 300 300 300 300 300 300 299 299 299 299 299 299 299 299 299 299 299 298 298 298 298 299 299 299 299 299 300 299 298 298 297
337 335 334 334 335 334 332 331 331 331 330 330 329 328 327 326 326 325 323 322 319 315 311 308 305 302 301 300 300 300 300 300 300 300 300 300 300 299 299 299 298 299 299 299 299 299 299 299 299 298 298 298 299 299 299 298 298 298 299 299 298 297 296
336 334 334 334 334 333 332 331 331 330 330 329 328 328 327 326 325 324 323 321 318 314 310 306 303 301 300 300 299 299 300 300 300 300 300 299 299 299 299 299 299 299 299 299 299 299 299 299 298 298 298 298 298 298 298 298 298 298 298 298 297 297 296
336 334 333 333 333 332 331 331 330 330 329 328 328 327 326 326 325 324 322 320 317 313 309 305 302 300 300 299 299 299 299 299 300 299 299 299 299 299 299 299 299 299 299 299 299 299 298 298 298 298 298 298 298 298 298 298 298 298 297 297 297 296 296
335 335 333 333 333 332 331 331 330 330 329 328 328 327 326 326 325 323 321 319 315 311 308 304 301 299 299 299 299 299 299 299 299 299 299 299 299 299 299 299 299 299 299 298 298 298 298 298 298 298 298 298 298 298 298 298 298 297 297 297 296 296 296
335 335 333 332 332 331 330 330 330 329 328 328 328 327 326 326 325 323 320 317 314 310 306 303 300 299 299 299 299 299 299 299 299 299 300 299 299 299 299 299 299 299 298 298 298 298 298 298 298 298 298 298 297 297 298 298 298 297 297 297 296 296 296
336 334 332 332 331 331 330 330 329 328 328 328 327 326 326 326 324 322 320 316 312 309 306 303 300 299 299 299 299 299 299 299 299 299 300 299 299 299 299 298 298 298 298 298 298 298 297 298 298 298 298 297 297 297 298 298 297 297 297 296 296 296 296
336 334 331 331 331 331 330 329 328 328 328 327 327 326 325 324 323 321 319 317 313 309 305 302 300 299 299 299 299 299 299 299 299 299 299 299 299 299 298 298 298 298 298 298 298 297 297 298 298 298 298 297 297 297 297 297 297 297 297 296 296 296 297
334 333 331 330 331 331 330 328 328 328 327 326 326 326 324 323 322 321 319 317 314 310 305 302 300 299 299 299 299 299 299 299 299 299 299 299 299 299 298 298 298 298 298 298 297 297 297 297 297 298 298 297 297 297 297 297 297 296 296 296 296 297 298
334 333 331 330 330 330 329 328 327 327 326 326 326 325 324 323 321 320 318 317 314 310 306 303 301 300 299 299 299 298 299 299 299 299 299 299 298 298 299 298 298 298 298 297 297 297 297 297 297 298 297 297 297 297 297 297 296 296 296 296 296 297 299
334 332 331 330 330 329 328 328 327 326 325 325 326 325 324 322 321 319 317 316 314 310 306 304 302 300 300 299 299 298 298 298 298 299 299 299 298 298 299 298 298 298 298 297 297 297 297 297 297 297 297 297 297 297 297 297 296 296 296 295 296 298 299
333 332 330 329 329 329 328 328 327 326 325 325 325 325 324 322 320 318 317 316 313 310 307 304 303 301 300 299 299 298 298 298 298 298 298 298 298 298 298 298 297 298 297 297 297 297 297 297 297 297 297 297 296 297 298 297 296 296 296 295 297 299 299
333 331 329 328 329 329 328 328 327 326 325 325 325 325 324 323 321 319 318 316 313 310 307 305 304 302 301 300 300 299 298 298 298 298 298 298 298 298 298 297 297 297 297 297 297 297 297 297 297 297 297 297 296 297 298 297 296 296 296 296 298 299 299
331 329 327 328 329 329 328 328 327 326 325 324 324 324 324 323 322 320 318 316 313 310 308 306 304 303 302 301 300 300 299 299 298 298 298 297 298 298 298 297 297 297 297 296 296 296 296 296 297 296 297 297 297 297 298 298 297 296 296 296 298 299 299
330 329 328 328 329 329 328 328 327 327 326 325 324 324 324 323 322 319 317 316 314 311 309 307 305 304 303 302 301 301 300 300 299 299 298 297 297 298 298 297 297 296 296 296 296 296 296 296 296 296 296 297 296 297 298 298 297 296 296 296 299 300 299
330 329 328 327 328 328 328 328 327 327 326 324 324 324 324 322 320 317 316 317 315 313 310 308 306 305 304 303 302 302 301 300 299 299 298 297 298 298 298 298 297 296 296 296 296 296 296 296 296 296 296 296 296 296 297 297 297 296 296 297 299 300 299
330 328 327 326 327 328 328 328 327 327 326 325 324 324 323 322 319 316 316 316 315 313 310 309 307 306 305 304 303 303 302 300 299 298 298 298 298 299 298 298 298 297 296 296 296 296 296 296 296 296 296 296 296 296 297 297 296 296 296 297 298 299 299
329 328 326 326 326 327 327 327 327 327 326 325 324 324 322 321 319 317 316 315 314 311 310 309 308 307 306 305 304 303 302 301 299 298 298 298 299 300 299 298 299 299 297 297 297 297 296 296 296 296 296 296 296 296 296 296 296 296 296 297 298 299 299
328 327 326 325 325 326 327 327 327 327 326 325 324 322 321 320 318 317 316 315 313 311 309 309 308 308 307 306 305 304 303 302 300 298 298 299 300 300 299 298 298 298 298 296 296 297 296 296 296 296 296 296 296 296 296 296 296 296 296 297 298 299 299
328 327 326 325 325 326 327 327 327 327 326 325 323 322 321 319 319 317 316 315 313 312 310 309 309 308 308 307 306 305 303 302 301 299 299 301 300 299 299 299 299 298 297 296 296 296 296 296 296 296 296 296 296 296 296 296 296 296 297 297 298 298 299
329 328 327 326 325 326 327 327 327 326 326 324 323 321 321 320 319 318 316 314 312 311 310 310 309 309 309 308 307 306 305 303 301 300 300 300 300 300 299 299 298 297 296 296 296 296 295 296 296 296 296 296 296 296 296 297 296 296 297 297 297 298 298
329 329 328 326 325 326 326 326 326 326 325 324 322 321 321 320 319 317 316 314 313 311 311 310 310 309 309 309 308 307 306 304 301 301 300 300 300 300 300 299 298 296 296 297 297 296 295 295 296 296 296 296 296 296 297 296 296 297 298 298 298 298 298
Wind_Speed
33 30 27 26 26 24 23 22 22 21 21 20 20 18 17 16 16 17 17 17 16 15 14 14 13 13 13 12 13 14 16 17 17 17 16 15 16 19 19 19 18 16 14 12 10 10 11 13 12 9 9 9 9 9 10 11 12 11 11 11 12 12 13
32 30 28 28 27 25 24 23 23 23 22 21 20 18 17 17 17 17 17 17 16 14 13 13 13 12 12 12 13 14 15 16 15 15 14 13 14 17 19 20 18 17 16 14 13 12 11 11 12 11 11 10 9 9 10 10 10 8 8 9 9 11 11
32 31 29 28 27 26 25 24 25 24 24 22 20 19 18 18 17 17 16 16 15 13 13 13 12 12 12 12 13 14 15 16 15 15 13 12 13 16 18 19 18 18 17 16 16 14 11 10 10 12 12 10 11 10 10 9 8 7 6 7 7 9 10
33 32 31 29 28 28 26 26 26 25 24 23 21 20 19 19 18 17 17 16 14 14 13 12 12 12 13 13 14 15 15 15 15 14 14 14 14 14 16 16 16 16 15 16 15 13 12 11 10 13 13 12 12 11 10 9 7 6 5 4 5 7 8
32 32 31 30 29 29 28 27 27 26 25 23 22 21 20 20 19 18 17 16 15 14 13 13 13 13 13 14 15 15 15 14 14 14 14 15 14 13 14 15 14 13 13 13 12 11 11 10 9 12 16 16 14 13 11 8 7 5 2 2 5 7 6
32 31 31 30 30 29 28 28 27 26 24 24 23 22 22 21 20 20 18 16 14 13 13 13 13 13 14 14 14 14 13 13 13 13 14 14 13 13 13 13 12 12 12 12 12 11 11 10 9 11 16 17 16 15 12 7 5 4 1 2 4 5 6
32 32 31 30 30 29 28 27 26 24 23 22 22 22 22 21 21 20 18 15 13 12 13 13 13 13 14 14 13 12 11 11 12 13 13 13 12 12 12 12 11 11 10 10 11 11 11 12 11 11 15 18 17 15 12 9 6 5 3 2 4 4 6
32 31 31 30 29 28 26 25 24 23 21 21 22 22 22 21 21 19 16 12 12 11 12 12 12 13 13 13 11 10 10 11 12 12 12 12 12 11 11 10 10 9 9 9 9 10 11 13 13 12 14 17 18 15 12 8 6 5 3 2 3 2 6
32 31 30 29 28 27 24 23 22 21 20 20 22 22 21 20 20 17 13 11 12 10 9 10 12 12 12 11 10 9 10 11 12 12 12 11 11 10 10 9 9 9 9 9 9 9 11 13 14 14 14 14 14 14 12 8 5 3 3 3 2 3 7
33 32 30 28 27 26 23 21 20 19 20 21 21 21 20 20 18 14 11 12 12 10 9 10 12 12 12 10 9 10 11 13 13 12 11 11 11 10 10 9 9 8 9 9 9 9 10 12 14 16 15 13 12 12 13 10 6 4 3 4 2 4 7
33 31 29 27 26 26 24 21 19 19 21 22 21 21 20 19 16 13 12 13 13 11 10 11 13 12 12 11 11 12 13 14 14 13 12 11 11 10 10 10 10 9 9 9 8 8 9 10 12 14 15 14 13 13 13 11 7 4 3 3 1 4 6
32 30 28 26 26 25 24 22 21 21 23 23 22 21 19 17 14 13 13 12 12 11 11 12 13 13 12 12 12 14 15 15 14 13 13 11 11 11 11 11 10 10 10 9 8 8 8 8 8 10 13 14 14 13 13 11 7 5 4 3 2 4 5
31 29 27 26 26 25 24 23 22 24 24 23 22 20 17 15 14 14 13 11 11 12 13 13 14 13 13 13 14 15 15 15 14 13 13 12 12 12 12 12 11 11 10 10 9 9 8 8 8 9 11 11 9 9 9 9 7 6 4 3 2 3 5
31 29 27 26 26 24 23 23 24 26 25 23 22 20 17 15 15 13 13 12 13 13 14 14 15 14 14 15 15 16 15 15 14 14 14 13 13 13 12 12 12 11 11 10 10 9 8 7 7 8 9 9 8 7 7 8 7 6 5 3 0 3 5
31 29 28 27 26 24 23 23 25 26 25 23 21 19 17 16 15 13 12 13 14 14 15 15 15 15 15 16 16 16 16 16 15 14 14 13 13 13 12 12 12 11 11 11 10 8 7 7 7 8 9 8 7 6 5 6 7 7 6 3 0 2 4
31 29 28 27 26 24 23 24 26 25 24 23 21 18 17 16 15 12 12 13 14 15 16 16 15 15 16 16 16 17 17 17 16 15 14 14 14 14 13 12 12 11 11 11 10 9 8 7 8 8 7 6 5 5 4 4 5 6 5 2 1 3 5
32 30 29 28 26 23 23 25 26 25 25 24 21 19 18 17 14 12 12 13 14 16 17 16 16 16 16 16 16 18 18 17 16 15 14 14 14 14 14 13 12 12 11 10 10 9 7 7 8 8 6 5 3 2 1 1 1 1 1 1 2 4 5
32 31 30 28 25 23 24 26 27 26 26 24 22 20 18 17 14 13 12 12 14 16 17 16 16 16 16 17 17 18 18 18 16 15 15 14 15 14 14 13 13 11 10 9 9 8 7 7 7 7 6 5 3 2 2 3 2 2 2 3 3 4 5
33 31 30 28 26 24 25 27 28 27 26 24 22 21 18 16 14 12 11 12 14 16 16 16 16 17 17 18 19 19 19 18 17 16 16 15 15 14 14 12 10 9 9 9 7 6 7 7 8 8 7 5 3 2 3 2 2 3 3 4 4 4 5
33 31 30 28 26 25 26 27 29 28 26 25 23 21 19 16 13 11 11 12 14 15 16 16 17 17 18 19 20 20 19 19 18 17 17 15 14 14 12 10 9 9 10 9 8 8 8 8 9 9 7 5 3 2 2 2 2 2 3 3 4 5 7
33 32 30 28 25 24 26 28 29 28 27 25 23 21 19 16 13 11 11 13 14 15 16 16 17 18 19 20 20 20 19 19 19 18 16 15 14 13 12 11 11 10 10 9 9 10 10 10 10 9 7 5 3 2 2 1 1 2 2 3 4 6 8
33 31 30 28 24 24 28 30 30 29 27 25 23 21 19 16 13 12 12 13 15 16 16 17 18 19 19 20 20 20 20 20 19 18 16 15 14 13 12 12 12 11 11 11 11 12 12 11 10 9 7 4 3 2 2 1 1 1 3 4 5 7 8
33 31 30 28 24 26 30 32 31 29 27 25 23 21 18 15 14 13 13 14 15 17 18 18 18 19 19 19 20 20 20 20 19 18 16 15 14 14 13 13 13 13 12 12 12 13 13 12 10 9 7 5 3 2 1 1 0 2 3 5 7 8 9
32 31 30 27 25 29 32 33 31 29 27 25 23 21 18 15 15 14 13 13 15 17 18 18 18 19 19 20 20 20 20 20 19 18 16 15 14 14 14 15 14 14 13 12 12 13 13 12 11 9 8 6 4 3 2 1 0 3 4 6 8 8 9
31 31 30 27 27 33 35 33 32 29 26 25 23 20 17 16 16 15 14 14 15 17 18 18 18 19 20 20 20 20 20 20 19 18 17 15 15 14 14 15 15 14 13 13 13 13 13 12 11 10 8 7 5 3 3 2 0 3 4 6 8 7 8
31 32 31 28 30 36 36 34 32 29 27 25 23 20 17 17 17 16 15 15 15 17 17 17 18 19 19 19 20 20 20 20 19 18 17 16 15 15 14 15 16 15 15 15 14 14 14 12 11 10 8 7 5 4 4 2 0 3 4 6 7 6 7
32 33 30 28 34 38 36 34 32 29 27 25 24 21 19 19 18 17 16 15 15 17 17 17 18 18 19 19 19 20 20 20 20 19 17 16 16 16 15 15 15 15 15 16 15 14 13 12 11 10 9 8 7 6 5 3 1 3 5 6 6 5 6
33 31 29 30 36 38 36 34 32 30 28 25 24 22 20 19 18 17 16 15 16 17 17 18 18 18 18 18 19 20 20 21 20 19 18 17 17 16 15 15 15 15 15 15 14 14 14 12 11 11 10 9 8 7 5 2 2 3 5 6 4 4 6
32 30 28 32 38 37 36 36 34 32 29 26 24 23 21 21 20 19 17 16 17 18 18 18 19 18 18 18 19 19 20 21 21 20 19 19 17 16 16 16 16 17 16 15 14 14 14 14 13 12 11 10 8 7 3 2 3 4 5 4 3 3 6
32 30 29 34 39 38 37 37 36 33 30 27 26 25 24 23 22 20 18 17 18 19 19 19 19 19 19 19 19 20 20 20 20 20 20 20 18 17 17 17 17 17 16 16 15 15 15 14 14 13 12 10 8 5 3 3 4 5 5 4 2 3 5
32 31 29 34 39 40 39 39 37 34 31 28 27 26 26 25 23 21 19 18 18 19 20 20 20 20 19 20 20 20 20 20 20 20 21 21 19 18 18 17 18 18 17 16 16 16 16 15 15 14 12 9 7 5 4 4 5 6 6 5 2 1 3
31 30 29 33 38 40 41 41 38 35 31 28 28 28 27 25 24 22 20 19 19 20 21 20 20 20 20 21 21 21 20 20 21 22 23 23 21 20 19 19 18 17 17 16 16 16 16 15 15 13 11 8 6 4 4 5 6 6 6 6 4 3 2
30 29 28 31 36 40 41 41 39 35 31 29 30 29 27 24 23 22 21 21 21 22 22 21 20 20 20 21 21 21 21 22 22 23 24 24 23 21 21 20 18 16 15 15 14 14 14 14 14 12 10 8 6 5 5 6 7 7 7 6 4 4 2
28 28 27 28 34 39 41 41 39 35 32 31 31 28 26 24 22 22 22 22 23 23 23 21 19 20 20 20 21 21 22 23 23 23 24 25 24 23 22 20 18 16 15 13 12 12 12 13 13 12 10 8 6 6 7 7 7 7 7 6 4 4 3
28 27 26 27 33 38 40 40 38 34 32 32 30 27 25 23 23 23 23 24 24 24 23 22 20 20 20 20 21 21 22 22 23 23 25 26 25 24 22 20 19 17 15 13 12 13 13 13 13 12 10 9 8 8 8 7 7 8 7 6 5 5 4
25 24 24 26 32 37 39 38 36 34 32 31 29 27 26 25 24 24 24 25 25 24 23 23 22 22 21 21 21 21 21 22 23 25 27 27 25 24 22 20 19 17 16 14 13 13 14 13 13 12 11 10 10 9 8 8 8 8 7 6 5 5 5
23 23 23 26 31 36 37 36 35 34 32 31 30 28 27 26 26 26 25 25 25 25 24 23 23 22 22 21 21 22 23 24 25 26 27 27 25 23 21 20 18 17 16 14 12 12 13 13 13 13 12 12 11 10 9 8 8 7 7 6 4 4 4
Wind_Direction
205 205 204 207 208 208 208 207 207 208 208 212 215 216 217 216 217 220 225 228 229 230 233 234 234 235 239 244 244 243 241 239 237 233 230 231 230 230 232 233 236 238 239 237 225 211 200 185 167 149 135 116 86 72 68 66 67 63 57 50 40 28 13
208 207 204 205 205 207 209 207 208 210 210 212 215 218 221 220 220 223 227 232 233 234 236 237 238 240 243 245 242 239 240 240 239 235 232 238 241 240 239 237 235 233 230 224 214 210 207 188 167 152 142 127 104 87 80 79 79 75 66 54 39 19 3
208 207 205 204 204 206 208 208 209 210 211 212 214 218 222 224 225 225 228 231 233 236 239 239 241 243 241 237 234 235 237 240 242 241 240 248 250 244 241 239 236 231 225 218 214 208 198 188 167 150 141 130 117 102 95 96 90 84 76 55 32 6 352
209 206 205 204 203 204 207 209 210 210 211 213 215 217 220 224 226 226 227 228 232 237 238 238 242 243 236 230 230 233 236 239 243 244 244 250 249 241 236 236 235 233 227 223 221 211 196 191 172 151 142 136 127 115 111 112 104 96 83 49 15 355 351
212 210 208 207 206 205 206 209 210 210 211 212 215 217 219 222 224 225 227 229 231 236 235 235 242 243 234 228 229 231 234 238 241 243 243 244 239 232 229 227 226 227 224 223 223 215 208 207 188 156 145 145 140 130 127 128 127 119 96 10 348 349 1
216 215 214 213 212 211 210 210 212 213 212 212 215 218 219 220 222 225 228 231 233 236 236 237 244 240 229 226 227 229 232 236 240 241 240 237 228 221 222 220 218 219 219 220 221 220 217 211 198 167 149 150 150 144 142 148 158 168 209 306 323 338 14
217 218 218 218 218 218 217 215 215 217 216 216 217 216 215 216 220 225 228 232 237 237 237 240 241 232 224 223 223 225 231 235 238 238 233 227 216 210 213 213 212 213 215 217 216 217 215 205 201 188 163 154 155 157 159 163 176 203 225 281 305 320 25
218 219 221 222 223 224 223 219 217 220 221 219 216 212 211 214 220 225 227 232 234 232 234 235 228 221 220 219 219 223 230 235 235 229 221 214 207 204 205 208 211 209 208 210 206 205 205 198 197 198 185 170 163 162 166 169 175 193 206 249 278 332 29
218 220 222 222 224 227 228 223 220 222 220 214 211 209 210 215 222 226 225 226 227 223 225 225 217 216 218 218 221 226 230 230 224 214 206 200 201 201 200 202 207 207 204 203 203 201 199 195 191 190 194 197 188 173 171 178 183 182 174 196 227 30 23
218 221 223 222 223 226 228 226 223 221 215 210 209 210 212 216 222 224 220 220 219 215 218 221 215 214 217 218 224 228 228 223 210 199 196 195 196 197 199 199 200 202 202 198 196 194 190 187 186 184 186 199 208 197 188 188 193 196 181 185 182 39 17
217 220 222 222 224 226 225 224 222 217 211 209 210 211 213 217 220 218 213 211 212 213 217 218 215 217 219 219 221 222 222 215 202 193 192 194 196 197 198 198 196 197 197 192 186 181 179 179 183 189 190 196 206 213 212 205 192 187 185 181 109 28 6
216 218 220 222 225 227 226 225 221 214 211 211 211 211 214 216 215 214 213 211 213 217 219 216 215 219 219 218 219 218 214 207 199 194 192 193 196 198 199 197 193 194 192 186 179 172 173 182 188 193 196 201 208 215 222 219 196 176 178 162 69 17 356
214 217 218 221 224 226 229 229 220 212 212 213 210 210 212 212 211 215 219 221 223 223 220 216 216 217 215 214 217 215 209 202 197 197 196 194 196 199 200 197 193 195 192 184 182 182 184 188 192 192 189 191 197 201 212 217 199 176 167 148 75 5 353
214 216 217 219 222 225 230 228 216 211 213 212 209 208 207 207 210 215 220 224 226 224 220 216 214 212 210 210 211 210 206 201 198 200 201 200 199 200 200 198 196 195 191 187 190 198 202 197 189 185 179 174 177 182 195 205 192 169 153 147 86 356 359
213 214 216 217 221 226 228 220 211 211 211 209 207 207 204 206 210 213 218 222 223 219 216 214 212 209 208 208 207 205 203 203 201 202 205 204 202 200 197 198 199 195 191 192 199 207 211 205 189 180 175 173 175 176 183 193 186 171 163 169 211 5 10
212 214 215 217 222 226 223 214 210 210 208 205 206 204 205 210 214 215 218 220 219 217 213 211 210 209 208 208 207 204 203 205 205 205 207 207 205 200 196 196 199 197 195 197 205 213 215 205 186 173 171 173 175 173 178 192 187 177 180 199 319 19 19
213 213 215 218 223 226 220 212 209 207 205 205 206 205 206 211 214 215 217 219 218 216 212 210 208 208 207 207 208 208 206 205 206 208 209 209 206 200 197 198 199 202 203 207 216 221 217 200 177 163 163 167 165 154 132 103 121 159 186 311 356 22 24
215 214 215 219 223 223 216 210 207 205 205 206 207 208 209 213 214 215 217 220 220 216 213 211 209 207 206 206 209 210 209 208 207 208 208 208 207 203 202 203 204 208 211 217 226 223 206 187 170 159 158 156 143 102 69 53 42 30 23 23 15 22 26
215 214 214 218 222 220 213 208 205 204 204 206 208 209 212 218 217 213 216 221 221 217 213 211 211 210 208 207 208 210 211 210 209 209 209 208 207 207 210 209 206 213 217 214 211 200 187 180 172 163 159 155 137 103 84 67 54 38 32 36 24 16 21
216 215 215 218 222 218 211 207 205 204 204 207 211 211 214 220 217 210 214 220 220 217 214 212 211 211 211 210 210 210 210 210 211 211 212 212 211 212 215 211 206 212 214 203 186 175 177 180 175 170 168 164 151 124 112 97 69 50 40 40 29 19 21
215 215 215 219 222 217 209 206 204 203 204 208 213 215 219 222 216 209 213 218 218 216 214 214 213 213 214 213 212 212 211 212 214 216 216 215 214 214 211 204 206 211 207 198 186 176 179 182 179 178 178 175 164 145 137 128 89 57 40 34 26 23 24
214 214 215 219 222 215 206 203 201 202 206 211 215 218 222 222 215 211 214 216 217 216 214 216 216 216 217 215 214 214 214 216 218 220 221 217 213 212 207 204 208 208 203 201 193 185 186 187 183 182 185 185 182 177 157 141 101 44 36 29 23 22 22
213 213 216 221 221 210 201 198 200 202 207 212 215 218 220 217 213 215 217 218 218 217 215 216 218 219 220 219 218 218 217 219 221 222 224 222 215 209 206 208 211 206 204 204 197 193 195 192 187 189 194 197 203 201 185 174 146 23 22 19 16 16 22
214 214 217 222 217 202 196 197 200 203 207 211 214 217 218 216 214 216 219 222 223 220 216 216 217 219 220 221 221 222 222 222 223 224 225 224 218 212 211 213 212 208 209 206 199 199 200 195 193 197 203 211 216 216 226 219 54 21 17 13 10 13 23
213 213 218 223 210 196 195 198 201 204 208 210 213 216 217 218 218 218 220 224 226 223 218 217 218 219 220 220 221 223 225 226 226 226 227 224 219 217 218 215 210 210 211 207 203 203 203 200 201 204 212 220 223 230 245 234 32 22 17 10 7 11 25
212 213 220 220 202 194 196 200 202 205 208 210 214 217 220 220 220 220 222 225 226 224 221 219 220 220 220 220 220 222 225 228 229 229 229 226 220 221 223 218 212 213 212 207 205 206 205 206 208 212 220 230 236 246 248 236 0 15 8 5 6 16 28
213 215 221 213 197 194 198 202 204 208 211 212 216 220 223 222 221 221 225 228 228 227 225 223 222 222 221 221 221 222 225 228 230 232 232 227 224 225 226 219 216 219 216 211 209 208 207 209 213 219 227 234 244 253 244 235 325 3 0 2 9 26 31
214 218 219 205 195 196 201 203 205 210 213 215 218 224 227 225 226 227 228 230 231 230 229 226 225 225 224 224 224 224 226 228 230 232 231 228 226 228 227 220 218 222 221 215 212 209 208 210 213 221 227 231 245 258 250 252 325 344 349 358 15 35 31
216 220 214 200 196 199 203 205 207 211 215 218 220 226 229 228 231 231 228 231 232 231 230 228 228 228 227 228 228 227 228 229 229 230 230 229 228 226 226 222 220 223 222 216 214 212 213 213 215 223 230 233 246 262 269 293 319 329 341 349 7 30 24
218 217 209 199 198 203 206 207 209 212 216 218 219 225 229 228 230 229 227 233 235 233 231 229 229 231 231 231 232 230 229 229 229 230 230 232 231 227 225 223 221 222 222 218 217 216 216 217 219 224 231 236 244 264 287 297 303 321 330 326 335 10 9
215 213 210 202 201 205 208 209 211 214 217 219 222 227 229 229 229 228 229 237 241 238 235 233 232 234 234 235 235 233 231 229 228 228 230 232 232 229 227 224 222 222 222 219 220 220 217 218 220 224 230 237 247 272 293 298 303 312 313 305 295 321 335
213 216 215 206 203 207 209 209 211 214 218 224 226 227 228 228 228 228 231 239 244 242 237 234 235 236 237 238 239 237 236 233 229 229 231 230 228 227 229 229 226 224 223 219 219 219 217 218 221 225 230 237 251 275 291 298 297 291 294 289 259 242 289
216 221 221 211 206 208 210 210 212 213 219 227 227 225 226 228 229 231 235 239 241 241 238 235 236 238 240 242 243 244 243 239 235 231 230 228 226 226 230 233 231 228 226 219 214 216 218 220 224 229 233 235 246 260 268 280 284 283 291 286 247 233 284
222 225 226 218 209 208 210 212 213 215 221 225 223 222 225 227 229 233 238 240 240 239 237 236 237 240 242 244 246 247 246 245 242 234 227 226 228 231 235 238 239 238 233 224 215 214 219 222 225 229 232 232 237 248 254 264 275 283 289 281 247 232 258
225 225 225 218 209 208 211 212 214 218 222 223 222 222 225 228 232 235 238 240 242 239 237 236 237 241 244 245 246 247 247 247 244 233 225 225 229 233 237 242 244 242 236 229 220 215 217 223 225 228 230 229 233 244 251 259 269 276 280 277 259 242 239
221 222 221 214 208 208 210 211 214 219 221 222 221 222 226 230 233 236 237 240 240 239 238 238 238 240 244 245 245 247 249 248 242 231 225 227 232 235 238 240 239 232 226 223 220 217 218 223 225 227 230 230 234 241 246 253 265 270 271 271 264 249 240
219 222 221 214 209 209 210 211 215 219 221 222 223 224 228 232 234 236 238 239 239 238 238 238 238 241 242 243 245 249 252 248 240 231 227 229 232 235 238 239 235 225 219 216 215 216 219 221 224 227 229 231 234 238 242 249 258 261 258 256 253 244 244